Hereford, TX

3:31 PM CST on January 23, 2017 (GMT -0600)
Hereford Municipal

Weather History for KHRX - September, 2013

Change the Weather History Date:

Wednesday, September 25, 2013

  Actual Average (KAMA) Record (KAMA)
Temperature  
Mean Temperature 70 °F -  
Max Temperature 90 °F 77 °F 94 °F (1951)
Min Temperature 51 °F 50 °F 32 °F (1926)
Cooling Degree Days 6    
Growing Degree Days 20 (Base 50)    
Moisture  
Dew Point 39 °F    
Average Humidity 39    
Maximum Humidity 71    
Minimum Humidity 12    
Precipitation  
Precipitation 0.00 in - - ()
Sea Level Pressure  
Sea Level Pressure 29.92 in    
Wind  
Wind Speed 9 mph (SSW)    
Max Wind Speed 22 mph    
Max Gust Speed 32 mph    
Visibility 10 miles    
Events      
Averages and records for this station are not official NWS values.
T = Trace of Precipitation, MM = Missing Value Source: NWS Daily Summary

Daily Weather History Graph

Daily Weather History Graph

Search for Another Location

Airport or City:

Trip Planner

Search our weather history database for the weather conditions in past years. The results will help you decide how hot, cold, wet, or windy it might be!

Date:

Astronomy

Sep. 25, 2013 Rise Set
Actual Time 7:39 AM CDT 7:41 PM CDT
Civil Twilight 7:14 AM CDT 8:06 PM CDT
Nautical Twilight 6:45 AM CDT 8:35 PM CDT
Astronomical Twilight 6:15 AM CDT 9:05 PM CDT
Moon No Moon Rise 1:34 PM CDT (9/25)
Length of Visible Light 12h 52m
Length of Day
12h 01m
Waning Gibbous, 64% of the Moon is Illuminated
Sep 25
Waning Gibbous
Sep 26
Last Quarter
Oct 4
New
Oct 11
First Quarter
Oct 18
Full

Hourly Weather History & Observations

Time (CDT) Temp. Dew Point Humidity Pressure Visibility Wind Dir Wind Speed Gust Speed Precip Events Conditions
12:15 AM 60.4 °F 42.8 °F 52% 30.05 in 10.0 mi SSW 5.8 mph - N/A   Clear
12:35 AM 60.3 °F 43.2 °F 53% 30.04 in 10.0 mi SSW 4.6 mph - N/A   Clear
12:55 AM 59.2 °F 43.3 °F 56% 30.04 in 10.0 mi SW 5.8 mph - N/A   Clear
1:15 AM 55.2 °F 43.0 °F 63% 30.04 in 10.0 mi WSW 3.5 mph - N/A   Clear
1:35 AM 57.2 °F 43.9 °F 61% 30.04 in 10.0 mi Calm Calm - N/A   Clear
1:55 AM 55.4 °F 43.7 °F 65% 30.03 in 10.0 mi Calm Calm - N/A   Clear
2:35 AM 55.6 °F 43.7 °F 64% 30.03 in 10.0 mi SW 5.8 mph - N/A   Clear
2:55 AM 53.2 °F 43.0 °F 68% 30.02 in 10.0 mi Calm Calm - N/A   Clear
3:15 AM 53.4 °F 43.0 °F 68% 30.02 in 10.0 mi SSW 3.5 mph - N/A   Clear
3:35 AM 52.5 °F 43.0 °F 70% 30.01 in 10.0 mi SSW 4.6 mph - N/A   Clear
3:55 AM 52.0 °F 42.8 °F 71% 30.00 in 10.0 mi SSW 5.8 mph - N/A   Clear
4:35 AM 51.4 °F 42.1 °F 70% 29.99 in 10.0 mi SSW 6.9 mph - N/A   Clear
4:55 AM 52.0 °F 41.9 °F 69% 29.98 in 10.0 mi SSW 6.9 mph - N/A   Clear
5:15 AM 52.3 °F 41.9 °F 68% 29.98 in 10.0 mi SSW 6.9 mph - N/A   Clear
5:35 AM 53.8 °F 42.3 °F 65% 29.98 in 10.0 mi SSW 8.1 mph - N/A   Clear
5:55 AM 53.6 °F 42.1 °F 65% 29.98 in 10.0 mi SSW 8.1 mph - N/A   Clear
6:15 AM 53.8 °F 42.8 °F 66% 29.98 in 10.0 mi SSW 5.8 mph - N/A   Clear
6:35 AM 54.5 °F 43.0 °F 65% 29.99 in 10.0 mi SSW 6.9 mph - N/A   Clear
6:55 AM 54.7 °F 43.3 °F 66% 29.99 in 10.0 mi SSW 4.6 mph - N/A   Clear
7:15 AM 53.4 °F 43.3 °F 69% 29.98 in 10.0 mi SSW 5.8 mph - N/A   Clear
7:35 AM 52.7 °F 43.5 °F 71% 29.98 in 10.0 mi SSW 6.9 mph - N/A   Clear
7:55 AM 54.0 °F 44.4 °F 70% 29.99 in 10.0 mi SSW 6.9 mph - N/A   Clear
8:15 AM 56.7 °F 45.5 °F 66% 29.99 in 10.0 mi SSW 6.9 mph - N/A   Clear
8:35 AM 59.0 °F 46.4 °F 63% 29.99 in 10.0 mi SSW 10.4 mph - N/A   Clear
8:55 AM 61.5 °F 47.7 °F 60% 29.99 in 10.0 mi SSW 11.5 mph 16.1 mph N/A   Clear
9:15 AM 64.6 °F 48.7 °F 56% 29.99 in 10.0 mi SSW 13.8 mph 17.3 mph N/A   Clear
9:35 AM 67.5 °F 49.1 °F 52% 29.99 in 10.0 mi SSW 16.1 mph 19.6 mph N/A   Clear
9:55 AM 69.6 °F 49.3 °F 48% 29.99 in 10.0 mi SSW 12.7 mph 18.4 mph N/A   Clear
10:15 AM 71.8 °F 48.4 °F 43% 29.99 in 10.0 mi SSW 18.4 mph 25.3 mph N/A   Clear
10:35 AM 73.9 °F 46.4 °F 37% 29.99 in 10.0 mi SSW 21.9 mph 28.8 mph N/A   Clear
10:55 AM 75.9 °F 45.3 °F 34% 29.98 in 10.0 mi SSW 18.4 mph 28.8 mph N/A   Clear
11:15 AM 78.3 °F 45.0 °F 31% 29.98 in 10.0 mi SSW 19.6 mph 27.6 mph N/A   Clear
11:35 AM 79.0 °F 43.5 °F 28% 29.97 in 10.0 mi SSW 21.9 mph 32.2 mph N/A   Clear
11:55 AM 81.1 °F 42.3 °F 25% 29.96 in 10.0 mi SSW 20.7 mph 31.1 mph N/A   Clear
12:15 PM 82.4 °F 41.2 °F 23% 29.95 in 10.0 mi SSW 20.7 mph 29.9 mph N/A   Clear
12:35 PM 83.5 °F 39.6 °F 21% 29.94 in 10.0 mi SSW 20.7 mph 31.1 mph N/A   Clear
1:15 PM 85.5 °F 36.0 °F 17% 29.92 in 10.0 mi SSW 16.1 mph 27.6 mph N/A   Clear
1:55 PM 87.3 °F 34.5 °F 15% 29.90 in 10.0 mi SW 20.7 mph 31.1 mph N/A   Clear
2:15 PM 88.0 °F 34.0 °F 15% 29.89 in 10.0 mi SSW 15.0 mph 25.3 mph N/A   Clear
2:35 PM 88.0 °F 32.7 °F 14% 29.87 in 10.0 mi SSW 20.7 mph 27.6 mph N/A   Clear
2:55 PM 88.3 °F 33.1 °F 14% 29.86 in 10.0 mi SSW 17.3 mph 25.3 mph N/A   Clear
3:15 PM 88.9 °F 33.1 °F 14% 29.84 in 10.0 mi South 20.7 mph 27.6 mph N/A   Clear
3:55 PM 90.7 °F 32.4 °F 13% 29.83 in 10.0 mi SW 16.1 mph 25.3 mph N/A   Clear
4:15 PM 90.3 °F 31.6 °F 12% 29.82 in 10.0 mi SSW 17.3 mph 25.3 mph N/A   Clear
4:35 PM 90.5 °F 31.8 °F 12% 29.82 in 10.0 mi SW 16.1 mph 24.2 mph N/A   Clear
4:55 PM 90.7 °F 31.6 °F 12% 29.81 in 10.0 mi South 20.7 mph 27.6 mph N/A   Clear
5:15 PM 90.1 °F 30.7 °F 12% 29.81 in 10.0 mi SW 18.4 mph 25.3 mph N/A   Clear
5:35 PM 89.8 °F 31.1 °F 12% 29.81 in 10.0 mi SSW 17.3 mph 26.5 mph N/A   Clear
5:55 PM 89.8 °F 30.7 °F 12% 29.81 in 10.0 mi SW 16.1 mph 23.0 mph N/A   Clear
6:15 PM 89.2 °F 29.8 °F 12% 29.80 in 10.0 mi SSW 16.1 mph 23.0 mph N/A   Clear
6:35 PM 88.3 °F 30.0 °F 12% 29.80 in 10.0 mi SSW 13.8 mph 20.7 mph N/A   Clear
6:55 PM 87.1 °F 31.3 °F 14% 29.80 in 10.0 mi SSW 13.8 mph 20.7 mph N/A   Clear
7:15 PM 85.1 °F 31.8 °F 15% 29.80 in 10.0 mi SSW 10.4 mph 16.1 mph N/A   Clear
7:35 PM 82.6 °F 32.7 °F 17% 29.80 in 10.0 mi SSW 9.2 mph - N/A   Clear
7:55 PM 80.2 °F 34.7 °F 19% 29.80 in 7.0 mi SSW 8.1 mph - N/A   Clear
8:15 PM 72.3 °F 36.3 °F 27% 29.80 in 10.0 mi SSE 5.8 mph - N/A   Clear
8:35 PM 70.5 °F 34.9 °F 27% 29.80 in 10.0 mi South 9.2 mph - N/A   Clear
8:55 PM 71.6 °F 35.6 °F 27% 29.80 in 10.0 mi South 8.1 mph - N/A   Clear
9:15 PM 70.2 °F 36.1 °F 29% 29.80 in 10.0 mi South 6.9 mph - N/A   Clear
9:35 PM 69.8 °F 36.0 °F 29% 29.81 in 10.0 mi South 9.2 mph - N/A   Clear
9:55 PM 68.4 °F 36.1 °F 31% 29.81 in 10.0 mi South 8.1 mph - N/A   Clear
10:15 PM 67.6 °F 36.0 °F 31% 29.82 in 10.0 mi South 8.1 mph - N/A   Clear
10:35 PM 67.1 °F 35.6 °F 31% 29.82 in 10.0 mi South 8.1 mph - N/A   Clear
10:55 PM 68.7 °F 36.0 °F 30% 29.82 in 10.0 mi South 9.2 mph - N/A   Clear
11:15 PM 68.2 °F 36.1 °F 31% 29.82 in 10.0 mi South 9.2 mph - N/A   Clear
11:35 PM 68.4 °F 36.5 °F 31% 29.81 in 10.0 mi South 9.2 mph - N/A   Clear
11:55 PM 68.4 °F 36.7 °F 31% 29.81 in 10.0 mi South 10.4 mph - N/A   Clear